When you browse on this site, cookies collect data to enhance your experience and personalize the content and advertising you see.
Visit our Privacy Policy to learn more. By continuing to use the site, you agree to this use of cookies and data.
  • In Slovakia
  • List of Countries
  • For 7 days
  • Water Temperature
  • Satellite Maps
  • Weather Map
  • Weather Widgets
  • user-avatar
    Login

    Hourly Weather Kyrdzhali

    Today, 20 June, Thursday

    Time Temperature Precipitation Wind Pressure Humidity
    00:00 +19°C° 0 mm 1 mps 724 mmHg 78%
    01:00 +19°C° 0 mm 1 mps 724 mmHg 78%
    02:00 +19°C° 0 mm 1 mps 724 mmHg 77%
    03:00 +18°C° 0 mm 1 mps 724 mmHg 76%
    04:00 +18°C° 0 mm 1 mps 724 mmHg 75%
    05:00 +18°C° 0 mm 1 mps 724 mmHg 74%
    06:00 +20°C° 0 mm 1 mps 724 mmHg 69%
    07:00 +22°C° 0 mm 1 mps 725 mmHg 65%
    08:00 +24°C° 0 mm 1 mps 725 mmHg 60%
    09:00 +25°C° 0 mm 1 mps 725 mmHg 57%
    10:00 +26°C° 0 mm 2 mps 725 mmHg 54%
    11:00 +28°C° 0 mm 3 mps 725 mmHg 52%
    12:00 +28°C° 0 mm 3 mps 725 mmHg 49%
    13:00 +28°C° 0 mm 3 mps 725 mmHg 47%
    14:00 +29°C° 0 mm 3 mps 725 mmHg 45%
    15:00 +29°C° 0 mm 2 mps 725 mmHg 44%
    16:00 +29°C° 0 mm 2 mps 724 mmHg 44%
    17:00 +29°C° 0 mm 2 mps 724 mmHg 44%
    18:00 +27°C° 0 mm 1 mps 724 mmHg 50%
    19:00 +24°C° 0 mm 1 mps 724 mmHg 56%
    20:00 +22°C° 0 mm 1 mps 724 mmHg 62%
    21:00 +22°C° 0 mm 1 mps 724 mmHg 65%
    22:00 +21°C° 0 mm 1 mps 724 mmHg 68%
    23:00 +21°C° 0 mm 1 mps 725 mmHg 71%

    Tomorrow, 21 June, Friday

    Time Temperature Precipitation Wind Pressure Humidity
    00:00 +20°C° 0 mm 1 mps 725 mmHg 72%
    01:00 +20°C° 0 mm 1 mps 724 mmHg 73%
    02:00 +20°C° 0 mm 1 mps 724 mmHg 74%
    03:00 +19°C° 0 mm 1 mps 724 mmHg 76%
    04:00 +19°C° 0 mm 1 mps 724 mmHg 77%
    05:00 +19°C° 0 mm 1 mps 724 mmHg 78%
    06:00 +21°C° 0 mm 1 mps 725 mmHg 74%
    07:00 +23°C° 0 mm 1 mps 725 mmHg 70%
    08:00 +25°C° 0 mm 1 mps 726 mmHg 65%
    09:00 +26°C° 0.1 mm 2 mps 726 mmHg 62%
    10:00 +27°C° 0.1 mm 3 mps 726 mmHg 59%
    11:00 +28°C° 0.1 mm 4 mps 726 mmHg 56%
    12:00 +29°C° 0.1 mm 3 mps 726 mmHg 53%
    13:00 +29°C° 0.1 mm 3 mps 726 mmHg 51%
    14:00 +30°C° 0.1 mm 3 mps 726 mmHg 48%
    15:00 +29°C° 0.2 mm 3 mps 725 mmHg 53%
    16:00 +28°C° 0.2 mm 4 mps 725 mmHg 58%
    17:00 +27°C° 0.2 mm 4 mps 725 mmHg 63%
    18:00 +26°C° 0.4 mm 3 mps 725 mmHg 70%
    19:00 +24°C° 0.4 mm 2 mps 725 mmHg 76%
    20:00 +22°C° 0.4 mm 1 mps 725 mmHg 83%
    21:00 +22°C° 0 mm 1 mps 725 mmHg 85%
    22:00 +21°C° 0 mm 1 mps 726 mmHg 87%
    23:00 +20°C° 0 mm 1 mps 726 mmHg 90%

    Day after tomorrow, 22 June, Saturday

    Time Temperature Precipitation Wind Pressure Humidity
    00:00 +20°C° 0 mm 1 mps 726 mmHg 90%
    01:00 +20°C° 0 mm 1 mps 726 mmHg 90%
    02:00 +20°C° 0 mm 1 mps 726 mmHg 90%
    03:00 +19°C° 0 mm 1 mps 726 mmHg 90%
    04:00 +19°C° 0 mm 1 mps 726 mmHg 90%
    05:00 +18°C° 0 mm 2 mps 725 mmHg 90%
    06:00 +20°C° 0 mm 2 mps 726 mmHg 85%
    07:00 +21°C° 0 mm 2 mps 726 mmHg 79%
    08:00 +24°C° 0 mm 2 mps 727 mmHg 74%
    09:00 +25°C° 0.2 mm 2 mps 727 mmHg 70%
    10:00 +26°C° 0.2 mm 3 mps 727 mmHg 66%
    11:00 +28°C° 0.2 mm 3 mps 727 mmHg 62%
    12:00 +28°C° 1.2 mm 3 mps 727 mmHg 59%
    13:00 +29°C° 1.2 mm 2 mps 727 mmHg 56%
    14:00 +29°C° 1.2 mm 2 mps 727 mmHg 53%
    15:00 +29°C° 0 mm 1 mps 726 mmHg 52%
    16:00 +30°C° 0 mm 1 mps 726 mmHg 51%
    17:00 +30°C° 0 mm 1 mps 726 mmHg 49%
    18:00 +28°C° 0 mm 1 mps 726 mmHg 55%
    19:00 +26°C° 0 mm 1 mps 726 mmHg 60%
    20:00 +24°C° 0 mm 1 mps 726 mmHg 65%
    21:00 +24°C° 0 mm 1 mps 726 mmHg 67%
    22:00 +23°C° 0 mm 1 mps 726 mmHg 69%
    23:00 +22°C° 0 mm 1 mps 726 mmHg 71%

    23 June, Sunday

    Time Temperature Precipitation Wind Pressure Humidity
    00:00 +22°C° 0 mm 1 mps 726 mmHg 73%
    01:00 +21°C° 0 mm 1 mps 726 mmHg 75%
    02:00 +21°C° 0 mm 1 mps 725 mmHg 76%
    03:00 +21°C° 0 mm 1 mps 725 mmHg 77%
    04:00 +20°C° 0 mm 1 mps 725 mmHg 78%
    05:00 +20°C° 0 mm 1 mps 725 mmHg 79%
    06:00 +22°C° 0 mm 1 mps 726 mmHg 74%
    07:00 +24°C° 0 mm 1 mps 726 mmHg 70%
    08:00 +24°C° 0 mm 0 mps 726 mmHg 65%
    09:00 +27°C° 0 mm 1 mps 726 mmHg 61%
    10:00 +28°C° 0 mm 2 mps 726 mmHg 57%
    11:00 +30°C° 0 mm 2 mps 726 mmHg 53%
    12:00 +30°C° 0.3 mm 3 mps 726 mmHg 53%
    13:00 +30°C° 0.3 mm 3 mps 726 mmHg 53%
    14:00 +30°C° 0.3 mm 3 mps 725 mmHg 53%
    15:00 +30°C° 0.2 mm 3 mps 725 mmHg 56%
    16:00 +30°C° 0.2 mm 3 mps 725 mmHg 58%
    17:00 +29°C° 0.2 mm 3 mps 724 mmHg 61%
    18:00 +28°C° 0.1 mm 2 mps 724 mmHg 64%
    19:00 +26°C° 0.1 mm 2 mps 724 mmHg 67%
    20:00 +24°C° 0.1 mm 1 mps 724 mmHg 71%
    21:00 +24°C° 0 mm 1 mps 724 mmHg 72%
    22:00 +23°C° 0 mm 1 mps 724 mmHg 73%
    23:00 +22°C° 0 mm 1 mps 724 mmHg 73%

    24 June, Monday

    Time Temperature Precipitation Wind Pressure Humidity
    00:00 +22°C° 0.1 mm 1 mps 724 mmHg 76%
    01:00 +21°C° 0.1 mm 1 mps 724 mmHg 79%
    02:00 +20°C° 0.1 mm 1 mps 724 mmHg 82%
    03:00 +20°C° 0.1 mm 1 mps 724 mmHg 86%
    04:00 +19°C° 0.1 mm 1 mps 724 mmHg 89%
    05:00 +18°C° 0.1 mm 2 mps 724 mmHg 92%
    06:00 +19°C° 0.3 mm 2 mps 725 mmHg 88%
    07:00 +21°C° 0.3 mm 2 mps 725 mmHg 84%
    08:00 +23°C° 0.3 mm 2 mps 726 mmHg 80%
    09:00 +24°C° 1.6 mm 2 mps 726 mmHg 77%
    10:00 +25°C° 1.6 mm 3 mps 726 mmHg 75%
    11:00 +26°C° 1.6 mm 3 mps 726 mmHg 73%
    12:00 +25°C° 1.8 mm 3 mps 726 mmHg 75%
    13:00 +24°C° 1.8 mm 3 mps 726 mmHg 78%
    14:00 +24°C° 1.8 mm 3 mps 726 mmHg 81%
    15:00 +24°C° 0.8 mm 3 mps 726 mmHg 81%
    16:00 +24°C° 0.8 mm 2 mps 726 mmHg 81%
    17:00 +24°C° 0.8 mm 2 mps 726 mmHg 80%
    18:00 +23°C° 0.8 mm 2 mps 726 mmHg 83%
    19:00 +22°C° 0.8 mm 1 mps 726 mmHg 86%
    20:00 +21°C° 0.8 mm 1 mps 726 mmHg 89%
    21:00 +21°C° 0.4 mm 1 mps 726 mmHg 87%
    22:00 +21°C° 0.4 mm 1 mps 726 mmHg 85%
    23:00 +20°C° 0.4 mm 2 mps 727 mmHg 83%

    25 June, Tuesday

    Time Temperature Precipitation Wind Pressure Humidity
    00:00 +19°C° 0 mm 2 mps 727 mmHg 83%
    01:00 +19°C° 0 mm 2 mps 727 mmHg 83%
    02:00 +19°C° 0 mm 2 mps 726 mmHg 83%
    03:00 +18°C° 0 mm 2 mps 726 mmHg 84%
    04:00 +18°C° 0 mm 2 mps 726 mmHg 85%
    05:00 +18°C° 0 mm 2 mps 726 mmHg 85%
    06:00 +20°C° 0 mm 3 mps 727 mmHg 81%
    07:00 +22°C° 0 mm 4 mps 727 mmHg 76%
    08:00 +25°C° 0 mm 5 mps 728 mmHg 72%
    09:00 +26°C° 0.1 mm 5 mps 728 mmHg 69%
    10:00 +26°C° 0.1 mm 5 mps 728 mmHg 67%
    11:00 +27°C° 0.1 mm 6 mps 728 mmHg 65%
    12:00 +27°C° 0.8 mm 6 mps 728 mmHg 66%
    13:00 +27°C° 0.8 mm 6 mps 728 mmHg 67%
    14:00 +27°C° 0.8 mm 6 mps 728 mmHg 68%
    15:00 +27°C° 0.7 mm 5 mps 727 mmHg 70%
    16:00 +27°C° 0.7 mm 5 mps 727 mmHg 73%
    17:00 +26°C° 0.7 mm 5 mps 727 mmHg 75%
    18:00 +25°C° 0.3 mm 4 mps 728 mmHg 78%
    19:00 +23°C° 0.3 mm 4 mps 728 mmHg 81%
    20:00 +22°C° 0.3 mm 3 mps 728 mmHg 84%
    21:00 +21°C° 0.1 mm 3 mps 728 mmHg 86%
    22:00 +21°C° 0.1 mm 3 mps 728 mmHg 87%
    23:00 +20°C° 0.1 mm 3 mps 729 mmHg 88%
    Show more